Weather History for Mountain Home, ID

Change the Weather History Date:

Sunday, October 2, 2011

  Actual Average Record
Temperature  
Mean Temperature 69 °F 57 °F  
Max Temperature 82 °F 73 °F 94 °F (1997)
Min Temperature 56 °F 40 °F 23 °F (1925)
Degree Days  
Heating Degree Days 0 8  
Month to date heating degree days 16  
Cooling Degree Days 4 1  
Month to date cooling degree days 2  
Growing Degree Days 19 (Base 50)    
Moisture  
Dew Point 36 °F    
Average Humidity 31    
Maximum Humidity 56    
Minimum Humidity 19    
Precipitation  
Precipitation 0.00 in 0.02 in 0.65 in (1946)
Month to date precipitation 0.04  
Sea Level Pressure  
Sea Level Pressure 29.89 in    
Wind  
Wind Speed 4 mph (North)    
Max Wind Speed 9 mph    
Max Gust Speed -    
Visibility 3 miles    
Events      
T = Trace of Precipitation, MM = Missing Value Source: NWS Daily Summary

Daily Weather History Graph

Daily Weather History Graph

Search for Another Location

Airport:

Trip Planner

Search our weather history database for the weather conditions in past years. The results will help you decide how hot, cold, wet, or windy it might be!

Date:

Astronomy

Oct. 02, 2011 Rise Set
Actual Time 7:41 AM MDT 7:23 PM MDT
Civil Twilight 7:13 AM MDT 7:51 PM MDT
Nautical Twilight 6:40 AM MDT 8:24 PM MDT
Astronomical Twilight 6:07 AM MDT 8:57 PM MDT
Moon 2:01 PM MDT (10/2) 11:17 PM MDT (10/2)
Length of Visible Light 12h 38m
Length of Day
11h 41m
Waxing Crescent, 35% of the Moon is Illuminated
Oct 2
Waxing Crescent
Oct 3
First Quarter
Oct 11
Full
Oct 19
Last Quarter
Oct 26
New

Hourly Weather History & Observations

Time (MDT) Temp. Dew Point Humidity Pressure Visibility Wind Dir Wind Speed Gust Speed Precip Events Conditions
12:55 AM 59.0 °F 43.3 °F 56% 29.84 in 5.0 mi Calm Calm - N/A   Haze
12:56 AM 59.0 °F 42.8 °F 55% 29.85 in 2.5 mi East 3.5 mph - N/A   Haze
1:55 AM 62.6 °F 43.7 °F 50% 29.85 in 10.0 mi NNW 6.9 mph - N/A   Clear
2:55 AM 65.8 °F 34.5 °F 31% 29.86 in 10.0 mi North 9.2 mph - N/A   Clear
3:55 AM 64.6 °F 35.1 °F 33% 29.87 in 10.0 mi WNW 3.5 mph - N/A   Overcast
4:55 AM 58.6 °F 35.4 °F 42% 29.90 in 10.0 mi West 6.9 mph - N/A   Overcast
5:55 AM 60.1 °F 34.2 °F 38% 29.91 in 10.0 mi West 5.8 mph - N/A   Overcast
6:14 AM 62.6 °F 35.6 °F 37% 29.89 in 2.5 mi NE 4.6 mph - N/A   Haze
6:17 AM 62.6 °F 35.6 °F 37% 29.90 in 2.0 mi Calm Calm - N/A   Haze
6:23 AM 60.8 °F 35.6 °F 39% 29.90 in 3.0 mi WNW 3.5 mph - N/A   Haze
6:55 AM 58.5 °F 35.6 °F 42% 29.92 in 10.0 mi West 6.9 mph - N/A   Mostly Cloudy
7:55 AM 56.5 °F 34.2 °F 43% 29.95 in 10.0 mi West 9.2 mph - N/A   Clear
8:55 AM 58.5 °F 35.1 °F 42% 29.97 in 8.0 mi WSW 5.8 mph - N/A   Clear
9:55 AM 65.8 °F 36.3 °F 34% 29.99 in 9.0 mi WNW 5.8 mph - N/A   Clear
10:55 AM 70.0 °F 36.9 °F 30% 29.99 in 4.0 mi SW 6.9 mph - N/A   Haze
11:55 AM 73.9 °F 36.5 °F 26% 29.99 in 10.0 mi North 8.1 mph - N/A   Clear
12:36 PM 75.2 °F 35.6 °F 24% 29.98 in 2.5 mi Variable 3.5 mph - N/A   Haze
12:55 PM 75.9 °F 36.0 °F 23% 29.97 in 2.5 mi Variable 4.6 mph - N/A   Haze
1:00 PM 77.0 °F 35.6 °F 22% 29.97 in 1.8 mi Variable 3.5 mph - N/A   Haze
1:11 PM 77.0 °F 35.6 °F 22% 29.96 in 2.0 mi Variable 4.6 mph - N/A   Haze
1:44 PM 77.0 °F 35.6 °F 22% 29.95 in 1.5 mi Calm Calm - N/A   Haze
1:55 PM 77.4 °F 35.4 °F 22% 29.94 in 1.5 mi Calm Calm - N/A   Haze
2:07 PM 78.8 °F 35.6 °F 21% 29.93 in 1.2 mi Variable 3.5 mph - N/A   Haze
2:18 PM 78.8 °F 35.6 °F 21% 29.92 in 1.5 mi Variable 3.5 mph - N/A   Haze
2:26 PM 78.8 °F 35.6 °F 21% 29.92 in 1.8 mi Variable 3.5 mph - N/A   Haze
2:36 PM 78.8 °F 35.6 °F 21% 29.91 in 1.2 mi Calm Calm - N/A   Haze
2:55 PM 79.2 °F 36.1 °F 21% 29.91 in 2.5 mi Calm Calm - N/A   Haze
3:14 PM 80.6 °F 35.6 °F 20% 29.89 in 1.5 mi Calm Calm - N/A   Haze
3:22 PM 80.6 °F 37.4 °F 21% 29.89 in 1.8 mi ESE 6.9 mph - N/A   Haze
3:28 PM 80.6 °F 37.4 °F 21% 29.88 in 2.0 mi Variable 6.9 mph - N/A   Haze
3:55 PM 81.5 °F 36.3 °F 20% 29.87 in 1.5 mi WNW 3.5 mph - N/A   Haze
4:13 PM 80.6 °F 35.6 °F 20% 29.87 in 1.2 mi South 3.5 mph - N/A   Haze
4:29 PM 80.6 °F 35.6 °F 20% 29.87 in 1.5 mi Calm Calm - N/A   Haze
4:41 PM 80.6 °F 35.6 °F 20% 29.87 in 1.2 mi East 3.5 mph - N/A   Haze
4:55 PM 81.5 °F 36.0 °F 19% 29.86 in 1.2 mi Variable 3.5 mph - N/A   Haze
5:13 PM 82.4 °F 35.6 °F 19% 29.85 in 2.0 mi ENE 5.8 mph - N/A   Haze
5:25 PM 80.6 °F 35.6 °F 20% 29.85 in 3.0 mi East 5.8 mph - N/A   Haze
5:55 PM 81.1 °F 35.4 °F 19% 29.84 in 4.0 mi SSE 4.6 mph - N/A   Haze
6:55 PM 76.8 °F 36.3 °F 23% 29.84 in 3.0 mi Calm Calm - N/A   Haze
7:25 PM 73.4 °F 35.6 °F 25% 29.85 in 2.5 mi SSW 4.6 mph - N/A   Haze
7:33 PM 73.4 °F 35.6 °F 25% 29.85 in 3.0 mi WSW 4.6 mph - N/A   Haze
7:55 PM 72.7 °F 37.2 °F 27% 29.86 in 3.0 mi Calm Calm - N/A   Haze
7:56 PM 71.6 °F 37.4 °F 29% 29.86 in 2.5 mi Calm Calm - N/A   Haze
8:24 PM 69.8 °F 35.6 °F 28% 29.86 in 1.2 mi Calm Calm - N/A   Haze
8:26 PM 69.8 °F 35.6 °F 28% 29.86 in 1.0 mi Calm Calm - N/A   Haze
8:33 PM 69.8 °F 35.6 °F 28% 29.87 in 1.0 mi Calm Calm - N/A   Haze
8:36 PM 69.8 °F 35.6 °F 28% 29.86 in 1.2 mi Calm Calm - N/A   Haze
8:55 PM 66.7 °F 36.0 °F 32% 29.86 in 1.8 mi ENE 3.5 mph - N/A   Haze
9:10 PM 66.2 °F 35.6 °F 32% 29.86 in 2.0 mi Variable 3.5 mph - N/A   Haze
9:29 PM 64.4 °F 35.6 °F 34% 29.87 in 2.5 mi North 4.6 mph - N/A   Haze
9:31 PM 64.4 °F 35.6 °F 34% 29.87 in 3.0 mi North 4.6 mph - N/A   Haze
9:44 PM 66.2 °F 37.4 °F 35% 29.86 in 1.0 mi NNE 6.9 mph - N/A   Haze
9:45 PM 66.2 °F 37.4 °F 35% 29.86 in 1.0 mi NNE 6.9 mph - N/A   Haze
9:55 PM 64.6 °F 38.1 °F 38% 29.86 in 1.0 mi NE 6.9 mph - N/A   Haze
10:10 PM 60.8 °F 37.4 °F 42% 29.86 in 0.8 mi NE 9.2 mph - N/A   Haze
10:11 PM 60.8 °F 37.4 °F 42% 29.86 in 0.8 mi NE 9.2 mph - N/A   Haze
10:37 PM 60.8 °F 37.4 °F 42% 29.85 in 0.8 mi NE 5.8 mph - N/A   Haze
10:38 PM 60.8 °F 37.4 °F 42% 29.85 in 1.0 mi NE 5.8 mph - N/A   Haze
10:55 PM 60.1 °F 35.1 °F 39% 29.85 in 1.0 mi NE 4.6 mph - N/A   Haze
11:12 PM 60.8 °F 35.6 °F 39% 29.85 in 0.8 mi Calm Calm - N/A   Haze
11:13 PM 59.0 °F 35.6 °F 42% 29.85 in 0.8 mi Calm Calm - N/A   Haze
11:55 PM 57.0 °F 35.1 °F 44% 29.84 in 0.8 mi ESE 3.5 mph - N/A   Haze